[[{"header":{"parameterUnit":"m.s-1","parameterCategory":1,"la1":30.2991,"la2":30.254,"lo1":-89.0895,"lo2":-89.0444,"dy":0.0017,"dx":0.0017,"nx":28,"ny":28,"refTime":"2023-04-23T21:00:00:Z","depth":0,"parameterNumber":2,"parameterNumberName":"U-component_of_WINDS"},"data":[0,0,0,0,0,0,0,0,0,0,0,0,0,0,0,0,0,0,0,0,0,0,0,0,0,0,0,0,0,0,0,0,0,0,0,0,0,0,0,0,0,0,0,0,0,0,0,0,0,0,0,0,0,0,0,0,0,0,-3.4128,-3.4128,0,-3.4078,-3.4078,-3.4077,-3.391,-3.3907,-3.3903,-3.3899,-3.3854,-3.3856,-3.3858,0,0,0,0,0,0,0,0,0,0,0,0,0,-3.4085,-3.4087,-3.4128,-3.4128,-3.4127,-3.4078,-3.4078,-3.4077,-3.3911,-3.3906,-3.3902,-3.3898,-3.3853,-3.3856,-3.3858,0,0,0,0,0,0,0,0,0,0,0,0,0,-3.4077,-3.4087,-3.4129,-3.4038,-3.403,-3.4078,-3.4078,-3.4077,-3.3912,-3.3906,-3.3901,-3.3895,-3.3852,-3.3855,-3.3859,-3.3992,0,0,-3.3869,-3.3871,0,0,0,0,0,0,0,0,-3.4077,-3.4078,-3.4052,-3.4045,-3.4035,-3.3994,-3.4045,-3.4049,-3.3913,-3.3957,-3.3899,-3.3893,-3.3905,-3.3904,-3.3907,-3.399,-3.3988,-3.3869,-3.3871,-3.3873,-3.3874,0,0,0,0,0,0,0,-3.4078,-3.408,-3.4109,-3.4052,-3.4042,-3.4002,-3.3994,-3.4045,-3.3964,-3.3953,-3.394,-3.3936,-3.39,-3.3904,-3.3905,-3.3987,-3.3869,-3.3872,-3.3874,-3.3876,-3.4177,-3.4182,0,0,0,0,0,0,-3.4091,-3.4081,-3.411,-3.4107,-3.4043,-3.4007,-3.3999,-3.4013,-3.3962,-3.3949,-3.3941,-3.3929,-3.3901,-3.3901,-3.3903,-3.4055,-3.3873,-3.3876,-3.3878,-3.4171,-3.4178,-3.4184,0,0,0,0,0,0,-3.4091,-3.4095,-3.4112,-3.4091,-3.409,-3.4014,-3.4032,-3.4015,-3.402,-3.3954,-3.3939,-3.3961,-3.3897,-3.3898,-3.3971,-3.4051,-3.3878,-3.3881,-3.4164,-3.4173,-3.4181,-3.4362,0,0,0,0,0,0,-3.409,-3.4096,-3.4145,-3.4093,-3.4092,-3.418,-3.4036,-3.4018,-3.4025,-3.4009,-3.3968,-3.3956,-3.3892,-3.3966,-3.3974,-3.4053,-3.3883,-3.4156,-3.4168,-3.4178,-3.4348,-3.4376,-3.4399,0,0,0,0,0,-3.4089,-3.4199,-3.4148,-3.4153,-3.4151,-3.4185,-3.4185,-3.4108,-3.4033,-3.4082,-3.4039,-3.3957,-3.4041,-3.3975,-3.3982,-3.4064,-3.4151,-3.4165,-3.4178,-3.4337,-3.4371,-3.4399,0,0,0,0,0,0,-3.4265,-3.4191,-3.4134,-3.423,-3.4215,-3.4157,-3.4217,-3.4146,-3.4153,-3.4138,-3.4043,-3.4036,-3.4122,-3.41,-3.4028,-3.419,-3.4082,-3.4098,-3.4201,-3.4232,-3.4257,-3.4261,-3.3886,0,0,0,0,0,-3.4315,-3.4347,-3.4281,-3.4373,-3.4368,-3.4294,-3.4306,-3.4248,-3.4229,-3.4223,-3.4185,-3.4172,-3.4195,-3.4212,-3.423,-3.4344,-3.4333,-3.4403,-3.4429,-3.445,-3.4465,-3.4523,-3.4554,-3.4228,-3.4228,-3.4228,0,0,-3.4419,-3.4382,-3.4409,-3.4407,-3.4389,-3.4425,-3.429,-3.4335,-3.4362,-3.423,-3.4296,-3.4268,-3.4247,-3.4341,-3.4381,-3.4325,-3.4552,-3.4467,-3.4485,-3.4488,-3.454,-3.4571,-3.4599,-3.4237,-3.4236,-3.4234,0,0,-3.4627,-3.4602,-3.4675,-3.4659,-3.4631,-3.4581,-3.4599,-3.4551,-3.4527,-3.4591,-3.4493,-3.4524,-3.4566,-3.4554,-3.4554,-3.4757,-3.4682,-3.4765,-3.4899,-3.4957,-3.4982,-3.5005,-3.5077,-3.5104,-3.478,-3.478,-3.4781,0,-3.476,-3.4809,-3.4722,-3.4773,-3.4775,-3.4655,-3.4729,-3.4718,-3.4699,-3.4704,-3.4642,-3.4691,-3.4668,-3.4758,-3.4807,-3.4811,-3.4829,-3.477,-3.4985,-3.5007,-3.5026,-3.5094,-3.5122,-3.4791,-3.479,-3.4789,-3.4788,0,-3.4974,-3.501,-3.5073,-3.5055,-3.5064,-3.5127,-3.505,-3.507,-3.5011,-3.4968,-3.5035,-3.5004,-3.5012,-3.5029,-3.4973,-3.5111,-3.5077,-3.5002,-3.4892,-3.5069,-3.5131,-3.5157,-3.4806,-3.4802,-3.4799,-3.4796,0,0,-3.5293,-3.5224,-3.5249,-3.5238,-3.5199,-3.5226,-3.5283,-3.5289,-3.5309,-3.53,-3.5346,-3.5383,-3.5312,-3.5312,-3.5254,-3.5305,-3.5467,-3.5222,-3.5221,-3.5269,-3.5617,-3.5674,-3.5705,-3.5416,-3.5421,-3.5425,-3.5618,0,-3.549,-3.5581,-3.5504,-3.561,-3.5643,-3.5529,-3.5578,-3.556,-3.5522,-3.5545,-3.5502,-3.553,-3.5435,-3.5434,-3.5479,-3.5438,-3.5535,-3.5422,-3.5459,-3.5462,-3.5468,-3.5737,-3.5798,-3.5982,-3.5642,-3.5646,-3.5649,0,-3.5732,-3.5731,-3.584,-3.5792,-3.5803,-3.5849,-3.5847,-3.587,-3.5848,-3.5816,-3.5816,-3.5743,-3.5797,-3.5689,-3.5762,-3.5687,-3.5698,-3.5679,-3.5685,-3.5685,-3.5566,-3.5746,-3.6039,-3.6067,-3.5686,-3.5683,-3.5681,0,-3.5953,-3.5979,-3.6047,-3.6042,-3.5988,-3.6023,-3.6003,-3.5974,-3.5983,-3.5983,-3.5987,-3.5995,-3.5999,-3.6007,-3.5938,-3.5866,-3.6021,-3.5907,-3.5997,-3.5999,-3.6035,-3.6033,-3.6334,-3.6042,-3.6042,-3.6041,-3.6041,0,-3.6181,-3.6252,-3.6146,-3.6188,-3.6265,-3.6176,-3.6255,-3.6222,-3.6198,-3.6233,-3.6136,-3.6171,-3.6078,-3.6104,-3.6051,-3.612,-3.6123,-3.6099,-3.6084,-3.6108,-3.6111,-3.6114,-3.6099,-3.6048,-3.6047,-3.6045,-3.6044,0,-3.6441,-3.6372,-3.6439,-3.6382,-3.6369,-3.6428,-3.6379,-3.6417,-3.6371,-3.6416,-3.6422,-3.6351,-3.6376,-3.6308,-3.6325,-3.6289,-3.6388,-3.6352,-3.6395,-3.6384,-3.6477,-3.6469,-3.679,-3.6828,-3.6513,-3.6516,-3.6518,0,-3.6591,-3.6643,-3.659,-3.6605,-3.6589,-3.6615,-3.6622,-3.6537,-3.6549,-3.6526,-3.6567,-3.6584,-3.6592,-3.6639,-3.659,-3.6602,-3.6565,-3.6677,-3.6567,-3.6589,-3.6567,-3.6564,-3.6569,-3.67,-3.6704,-3.6707,-3.671,0,-3.6864,-3.6827,-3.684,-3.6842,-3.6852,-3.685,-3.6841,-3.686,-3.6768,-3.6787,-3.681,-3.6817,-3.6832,-3.685,-3.6851,-3.6831,-3.6757,-3.6745,-3.6766,-3.6791,-3.6813,-3.6802,-3.6457,-3.6738,-3.6735,-3.6733,-3.6732,-3.673,-3.7073,-3.7113,-3.7082,-3.7099,-3.7083,-3.7077,-3.7108,-3.7066,-3.7083,-3.7086,-3.7036,-3.707,-3.7046,-3.7038,-3.7026,-3.7053,-3.7002,-3.7033,-3.7041,-3.705,-3.7065,-3.6809,-3.7053,-3.7052,-3.7051,-3.705,-3.705,0,-3.7341,-3.7314,-3.7331,-3.732,-3.7335,-3.726,-3.7246,-3.7264,-3.7294,-3.7277,-3.7287,-3.7314,-3.7331,-3.7283,-3.7293,-3.7324,-3.729,-3.7329,-3.7326,-3.7323,-3.711,-3.709,-3.7356,-3.7356,-3.7356,-3.7356,-3.7356,-3.7356,-3.7482,-3.7545,-3.7505,-3.756,-3.7533,-3.7563,-3.7562,-3.7556,-3.7541,-3.7575,-3.7588,-3.7555,-3.7526,-3.7533,-3.7546,-3.7531,-3.7539,-3.7591,-3.7565,-3.7368,-3.7338,-3.7309,-3.729,-3.7594,-3.7594,-3.7775,-3.7777,-3.7778]},{"header":{"parameterUnit":"m.s-1","parameterCategory":1,"la1":30.2991,"la2":30.254,"lo1":-89.0895,"lo2":-89.0444,"dy":0.0017,"dx":0.0017,"nx":28,"ny":28,"refTime":"2023-04-23T21:00:00:Z","depth":0,"parameterNumber":3,"parameterNumberName":"V-component_of_WINDS"},"data":[0,0,0,0,0,0,0,0,0,0,0,0,0,0,0,0,0,0,0,0,0,0,0,0,0,0,0,0,0,0,0,0,0,0,0,0,0,0,0,0,0,0,0,0,0,0,0,0,0,0,0,0,0,0,0,0,0,0,-5.4789,-5.4789,0,-5.4816,-5.4817,-5.4817,-5.4728,-5.4726,-5.4723,-5.472,-5.4748,-5.4751,-5.4754,0,0,0,0,0,0,0,0,0,0,0,0,0,-5.4656,-5.4659,-5.4789,-5.4789,-5.4789,-5.4816,-5.4817,-5.4817,-5.4729,-5.4725,-5.4722,-5.4719,-5.4747,-5.475,-5.4754,0,0,0,0,0,0,0,0,0,0,0,0,0,-5.4702,-5.466,-5.4788,-5.4748,-5.4745,-5.4816,-5.4817,-5.4817,-5.4729,-5.4725,-5.4721,-5.4718,-5.4745,-5.475,-5.4755,-5.4865,0,0,-5.477,-5.4772,0,0,0,0,0,0,0,0,-5.47,-5.4707,-5.4754,-5.4751,-5.4748,-5.4765,-5.478,-5.4833,-5.473,-5.4735,-5.472,-5.4716,-5.4757,-5.476,-5.4774,-5.4867,-5.4868,-5.477,-5.4773,-5.4775,-5.4776,0,0,0,0,0,0,0,-5.4697,-5.4705,-5.4799,-5.4755,-5.4751,-5.4728,-5.473,-5.479,-5.4768,-5.4735,-5.4728,-5.4733,-5.4754,-5.477,-5.4774,-5.4868,-5.477,-5.4774,-5.4777,-5.4779,-5.5051,-5.5055,0,0,0,0,0,0,-5.4699,-5.4703,-5.4799,-5.48,-5.4713,-5.4734,-5.4736,-5.4763,-5.4767,-5.4764,-5.4736,-5.4729,-5.4763,-5.4769,-5.4775,-5.4903,-5.4775,-5.478,-5.4782,-5.5047,-5.5052,-5.5056,0,0,0,0,0,0,-5.4696,-5.4708,-5.4797,-5.475,-5.476,-5.4741,-5.4772,-5.4766,-5.4782,-5.4769,-5.4764,-5.4757,-5.4761,-5.4768,-5.4843,-5.4903,-5.4782,-5.4786,-5.5041,-5.5048,-5.5054,-5.5163,0,0,0,0,0,0,-5.4693,-5.4708,-5.4751,-5.4752,-5.4763,-5.4867,-5.4775,-5.4769,-5.479,-5.4781,-5.4786,-5.4783,-5.4758,-5.4836,-5.4848,-5.4908,-5.479,-5.5036,-5.5044,-5.5052,-5.5154,-5.5172,-5.5188,0,0,0,0,0,-5.4689,-5.478,-5.4753,-5.4765,-5.4816,-5.487,-5.4876,-5.4846,-5.4796,-5.4838,-5.4829,-5.4783,-5.4895,-5.4845,-5.4857,-5.4919,-5.5032,-5.5042,-5.5051,-5.5146,-5.5168,-5.5187,0,0,0,0,0,0,-5.4787,-5.478,-5.475,-5.4844,-5.4859,-5.4855,-5.4907,-5.4871,-5.4899,-5.4889,-5.4849,-5.4851,-5.4933,-5.4933,-5.4878,-5.5025,-5.4955,-5.4967,-5.5022,-5.5044,-5.506,-5.5059,-5.4794,0,0,0,0,0,-5.4819,-5.4865,-5.4856,-5.494,-5.4949,-5.4927,-5.495,-5.4925,-5.4938,-5.4943,-5.494,-5.4954,-5.4991,-5.5017,-5.5052,-5.5153,-5.5152,-5.5202,-5.5219,-5.5233,-5.5244,-5.5296,-5.5318,-5.5088,-5.5088,-5.5088,0,0,-5.4887,-5.4889,-5.492,-5.496,-5.4968,-5.5015,-5.4933,-5.4987,-5.5021,-5.4951,-5.5022,-5.502,-5.5033,-5.5121,-5.516,-5.5124,-5.5307,-5.5245,-5.5256,-5.526,-5.5309,-5.533,-5.535,-5.5095,-5.5094,-5.5093,0,0,-5.5035,-5.5041,-5.5112,-5.5121,-5.5134,-5.5119,-5.5136,-5.5138,-5.5134,-5.5204,-5.5152,-5.5192,-5.5259,-5.5269,-5.5284,-5.5434,-5.5392,-5.5446,-5.5535,-5.5586,-5.5605,-5.562,-5.5673,-5.5693,-5.5457,-5.5457,-5.5458,0,-5.5118,-5.5188,-5.5153,-5.521,-5.5228,-5.5167,-5.5237,-5.5248,-5.5271,-5.5285,-5.5245,-5.5326,-5.533,-5.5419,-5.5456,-5.547,-5.5487,-5.5445,-5.5605,-5.562,-5.5635,-5.5684,-5.5705,-5.5464,-5.5463,-5.5462,-5.5462,0,-5.5288,-5.5337,-5.5392,-5.5416,-5.5441,-5.5504,-5.5478,-5.5507,-5.5479,-5.5468,-5.5539,-5.5542,-5.5575,-5.5594,-5.5568,-5.568,-5.5657,-5.5612,-5.554,-5.5664,-5.571,-5.5729,-5.5473,-5.5471,-5.5469,-5.5467,0,0,-5.55,-5.5503,-5.5523,-5.5533,-5.5542,-5.5579,-5.5639,-5.5671,-5.5696,-5.5714,-5.5763,-5.582,-5.5777,-5.5793,-5.5767,-5.5812,-5.593,-5.5761,-5.576,-5.5792,-5.6052,-5.6086,-5.6109,-5.5902,-5.5906,-5.5908,-5.6051,0,-5.5645,-5.5748,-5.5717,-5.5821,-5.5864,-5.5806,-5.5858,-5.5868,-5.5859,-5.5894,-5.5883,-5.5924,-5.5865,-5.5874,-5.5916,-5.5907,-5.5982,-5.5896,-5.5946,-5.5949,-5.5945,-5.6133,-5.617,-5.6304,-5.6069,-5.6072,-5.6074,0,-5.5828,-5.5853,-5.5961,-5.5961,-5.5978,-5.6025,-5.6052,-5.6086,-5.6097,-5.6086,-5.6104,-5.6068,-5.6126,-5.6054,-5.6132,-5.6074,-5.6093,-5.6091,-5.6095,-5.6099,-5.6019,-5.6142,-5.6346,-5.6367,-5.6102,-5.61,-5.6098,0,-5.5971,-5.6031,-5.6103,-5.6113,-5.6115,-5.6149,-5.6152,-5.6158,-5.6179,-5.6202,-5.6215,-5.6244,-5.626,-5.6283,-5.6256,-5.6206,-5.6338,-5.6264,-5.6331,-5.6331,-5.6361,-5.636,-5.6572,-5.6374,-5.6374,-5.6373,-5.6373,0,-5.6136,-5.6204,-5.6167,-5.6211,-5.6285,-5.6248,-5.6322,-5.6318,-5.6324,-5.6365,-5.6316,-5.6356,-5.6318,-5.6354,-5.6333,-5.64,-5.6408,-5.6401,-5.6394,-5.6405,-5.6406,-5.6417,-5.6407,-5.6378,-5.6377,-5.6376,-5.6375,0,-5.6308,-5.6286,-5.6361,-5.6356,-5.6356,-5.6411,-5.6407,-5.6447,-5.6433,-5.6486,-5.6497,-5.6475,-5.6515,-5.649,-5.6531,-5.6516,-5.6604,-5.6585,-5.6601,-5.6596,-5.6664,-5.6658,-5.689,-5.6919,-5.6703,-5.6705,-5.6707,0,-5.6415,-5.6466,-5.6467,-5.6491,-5.6497,-5.6537,-5.6557,-5.6523,-5.6546,-5.6561,-5.6599,-5.6635,-5.6661,-5.6728,-5.6716,-5.6746,-5.6727,-5.6806,-5.6731,-5.674,-5.6727,-5.6725,-5.6729,-5.6821,-5.6824,-5.6826,-5.6828,0,-5.6607,-5.6593,-5.6625,-5.6653,-5.668,-5.67,-5.6716,-5.6739,-5.6704,-5.6733,-5.6773,-5.6794,-5.6834,-5.687,-5.6895,-5.6896,-5.6857,-5.6851,-5.6868,-5.688,-5.6887,-5.6883,-5.6642,-5.6846,-5.6844,-5.6843,-5.6842,-5.6841,-5.675,-5.6791,-5.6798,-5.6835,-5.6843,-5.6859,-5.6897,-5.6887,-5.692,-5.6951,-5.6928,-5.6975,-5.6982,-5.7012,-5.7018,-5.7054,-5.7022,-5.7047,-5.7053,-5.706,-5.7069,-5.6881,-5.7059,-5.7058,-5.7058,-5.7057,-5.7057,0,-5.6938,-5.6939,-5.6974,-5.6998,-5.7026,-5.6986,-5.7001,-5.7028,-5.707,-5.708,-5.7107,-5.7153,-5.7187,-5.7177,-5.7207,-5.7237,-5.722,-5.7246,-5.7244,-5.7245,-5.7097,-5.7079,-5.726,-5.726,-5.726,-5.726,-5.726,-5.726,-5.704,-5.7108,-5.7095,-5.7167,-5.7167,-5.7213,-5.7225,-5.7239,-5.7247,-5.73,-5.7328,-5.7321,-5.7322,-5.7352,-5.7381,-5.7377,-5.739,-5.7424,-5.7413,-5.7275,-5.7255,-5.7236,-5.7219,-5.7427,-5.7427,-5.7558,-5.7559,-5.756]}]]